Vorticity
25 22 22 35 19 23 20 25 20 11 10 15 20 10 16 14 11 12 10 15 22 12 1 9 13 9 9 14 5 15 11 25 12 11 13 14 19 9 14 9 5 4 28 22 42 14 18 47 15 33 14 32 17 16
27 29 24 17 27 20 18 21 22 17 8 8 21 6 11 13 8 6 5 8 10 16 2 29 6 8 6 0 8 5 -3 -3 1 5 5 28 10 11 18 29 9 28 18 -16 -5 14 -8 -4 8 5 46 8 1 3
49 58 39 21 23 22 12 17 20 18 10 9 12 18 8 7 8 10 6 7 12 18 4 13 3 12 22 16 14 2 4 5 5 2 8 15 3 11 5 8 5 17 39 14 25 15 24 29 8 9 2 6 6 -0
41 55 35 24 19 22 19 18 16 16 15 10 12 16 13 14 12 10 6 8 4 1 -2 -9 11 25 17 11 4 2 5 3 2 6 12 5 9 7 16 12 7 -9 -15 21 23 3 -9 13 15 18 12 11 22 -7
42 33 30 24 14 13 18 23 20 20 13 14 12 8 10 15 10 7 7 5 4 -1 4 28 15 17 24 20 13 7 20 6 2 11 5 2 8 12 5 9 11 4 6 23 20 6 2 7 10 -1 10 13 41 28
20 20 21 17 15 16 12 19 17 21 15 15 12 14 13 12 13 6 6 6 7 6 3 -3 8 -2 9 7 17 -16 31 7 15 11 7 21 9 -12 -5 7 15 12 29 25 8 1 4 16 2 16 14 -5 50 -4
20 20 27 17 11 18 15 14 17 16 23 16 11 13 18 9 17 5 -8 2 10 1 7 18 29 25 28 29 28 19 28 16 6 18 7 5 -1 18 12 9 -10 5 -14 20 38 14 15 31 20 9 15 0 16 52
16 34 15 24 18 15 13 16 17 15 16 18 9 14 7 8 14 3 3 -9 10 39 20 -7 4 5 -5 11 5 1 23 18 10 3 11 19 17 12 20 16 2 28 20 7 -7 8 18 9 9 9 9 9 5 8
21 23 7 29 23 17 9 19 15 14 12 11 7 13 6 10 36 -0 4 8 -6 -21 14 5 15 10 16 22 5 -2 31 58 -15 15 15 12 11 6 10 15 26 14 24 13 13 15 11 9 9 7 8 8 2 1
10 14 21 24 12 9 43 11 -3 19 10 -2 6 11 5 22 13 1 30 44 23 25 -7 -4 20 6 8 10 10 46 30 12 25 31 22 21 -1 3 14 8 10 19 6 14 6 8 7 3 2 3 3 6 11 12
4 12 18 11 19 42 12 5 8 7 8 14 1 14 44 23 36 33 17 1 5 19 28 25 1 1 11 16 -2 25 32 8 11 34 -14 18 28 32 22 17 28 6 2 14 12 6 8 11 15 18 19 21 25 21
16 15 4 10 13 7 15 29 30 31 16 20 17 5 1 -6 6 11 10 12 15 8 9 23 14 19 12 9 30 28 9 16 16 22 -4 15 14 26 38 27 -3 13 11 11 12 9 14 18 14 20 26 28 23 21
-2 0 13 14 21 15 11 6 6 8 11 18 4 -2 4 10 12 5 10 9 11 8 22 12 12 9 22 25 10 15 13 8 34 -4 9 15 21 14 -4 13 7 6 9 9 10 11 11 16 16 11 11 10 7 3
4 4 1 16 9 -17 -0 6 11 20 20 -3 0 18 -2 11 16 7 15 13 5 8 -6 7 13 29 4 12 11 8 16 3 9 10 19 13 8 12 13 12 12 11 12 17 17 16 16 14 12 10 9 8 9 11
3 9 4 3 9 8 3 0 -2 -1 10 6 10 16 26 6 20 18 15 14 10 4 2 5 23 12 8 2 14 11 11 13 11 17 15 10 11 12 9 10 12 9 7 2 2 4 6 8 9 12 11 11 13 14
5 4 6 -0 -2 6 23 21 20 15 13 12 8 2 30 41 27 24 23 12 8 3 13 21 14 17 9 9 14 9 11 14 22 18 9 4 1 1 4 3 3 3 4 6 7 9 10 12 11 12 13 17 18 16
6 6 1 5 5 -1 8 17 17 7 8 10 12 11 10 11 13 16 17 17 21 19 13 0 11 9 16 10 13 11 11 25 -0 -11 3 10 10 11 10 7 4 2 1 6 7 3 9 12 13 15 13 14 12 13
5 7 4 2 6 2 2 14 14 17 8 13 17 25 24 11 12 12 9 12 26 10 -0 3 3 9 10 11 11 6 14 9 5 10 4 2 4 4 8 8 9 9 9 19 12 11 12 11 12 13 14 15 15 15
11 11 8 9 9 6 2 10 16 7 12 14 8 7 10 13 16 17 14 8 11 16 -3 12 6 14 10 5 3 10 9 1 -3 3 6 3 7 11 20 21 18 17 20 18 19 14 11 10 11 11 12 14 15 15
14 11 11 13 9 4 4 9 16 8 3 5 11 2 -2 -2 0 2 7 14 15 11 12 4 2 -3 6 7 14 12 4 14 16 -3 4 6 19 12 14 20 21 14 11 10 10 12 11 10 12 12 13 14 14 14
19 22 20 12 7 7 2 3 9 6 8 19 9 9 13 13 11 6 4 12 14 14 14 11 14 23 15 -1 -2 -7 -8 -6 1 6 6 13 19 34 10 12 7 3 3 13 15 14 10 11 13 13 14 15 15 14
16 21 22 23 20 22 13 8 4 16 7 -0 19 12 24 29 14 18 25 22 19 11 8 8 11 13 17 19 24 34 28 24 19 17 8 6 24 9 11 10 11 17 16 17 20 18 15 15 14 14 14 13 13 14
18 20 16 21 20 11 18 22 23 9 7 22 16 14 18 14 13 21 7 19 19 11 14 11 12 16 14 11 9 20 20 16 20 20 10 13 10 14 8 8 12 12 13 15 20 21 17 16 14 14 13 13 14 14
19 18 13 17 10 18 20 12 20 16 12 14 13 4 16 8 12 12 13 22 17 14 9 5 11 11 10 5 12 19 22 24 23 19 4 5 3 13 12 11 10 11 12 12 15 16 14 15 15 14 13 14 13 10
7 12 10 13 20 19 19 13 18 9 17 21 2 5 17 18 12 2 24 7 9 5 8 8 10 18 24 17 12 11 20 16 19 23 6 4 3 8 4 3 8 8 13 13 11 10 11 15 15 14 13 12 10 10
4 19 9 22 16 10 17 12 15 15 15 9 15 16 18 11 13 15 10 4 3 8 9 7 3 4 4 13 28 14 6 8 13 20 21 17 12 11 8 10 9 15 18 12 11 12 12 14 13 13 13 12 12 12
7 17 17 15 15 13 13 17 18 11 10 12 18 14 11 14 12 13 7 5 15 5 3 8 11 12 12 8 7 9 17 19 15 12 12 13 16 18 19 19 18 11 12 14 16 13 13 14 13 14 13 12 13 10
10 18 20 22 16 21 21 9 4 6 19 23 6 15 4 12 6 11 6 2 9 12 12 12 14 15 17 19 16 10 6 7 11 13 18 21 21 17 15 17 15 13 15 13 14 14 16 15 12 13 14 10 10 9
8 18 26 12 7 9 7 8 10 5 16 13 0 17 15 7 -2 9 13 13 13 15 16 17 21 15 16 15 14 20 19 11 10 8 13 18 18 17 16 18 17 15 14 16 14 16 17 15 17 9 9 12 6 7
10 29 16 4 15 -5 5 7 21 15 22 24 -1 14 13 10 11 12 12 15 17 19 21 20 22 19 19 15 13 21 20 14 8 8 6 8 11 14 18 18 16 14 17 18 16 18 18 17 17 16 14 11 13 13
12 15 7 12 17 22 22 15 13 11 14 17 19 4 5 11 13 9 8 11 11 13 14 21 20 19 18 14 20 23 14 15 11 7 4 3 4 7 8 14 15 15 16 14 15 14 13 13 13 13 15 11 12 11
10 8 8 10 11 21 23 27 23 7 17 4 18 30 31 16 5 -3 3 9 7 10 13 19 19 18 16 12 13 12 18 20 24 10 3 2 3 5 5 9 15 16 17 16 14 13 13 15 14 13 12 11 9 10
14 22 18 12 13 4 24 38 25 21 5 11 16 12 6 4 4 2 11 10 12 9 12 14 14 12 10 15 14 10 7 6 8 10 10 9 6 6 8 12 16 15 17 17 15 14 15 17 13 12 9 8 9 10
Height
2794 2793 2794 2797 2804 2812 2820 2829 2839 2850 2860 2869 2878 2888 2895 2902 2909 2915 2923 2928 2933 2936 2942 2945 2947 2949 2952 2954 2955 2954 2955 2954 2955 2955 2955 2953 2950 2950 2949 2948 2948 2947 2941 2942 2945 2946 2943 2938 2940 2942 2939 2944 2945 2946
2779 2777 2780 2787 2795 2804 2813 2822 2832 2843 2855 2864 2873 2882 2890 2897 2905 2913 2918 2924 2930 2932 2936 2937 2939 2942 2946 2949 2950 2950 2951 2951 2952 2951 2950 2947 2945 2944 2944 2942 2945 2943 2942 2936 2939 2936 2935 2935 2935 2934 2932 2935 2937 2938
2763 2759 2767 2779 2789 2799 2809 2819 2828 2839 2850 2860 2868 2877 2886 2893 2901 2908 2915 2921 2925 2928 2931 2932 2934 2938 2938 2942 2944 2945 2947 2949 2949 2949 2947 2945 2942 2943 2940 2938 2938 2936 2933 2929 2933 2931 2933 2931 2931 2932 2933 2932 2933 2934
2765 2761 2768 2779 2790 2800 2809 2817 2826 2836 2846 2856 2865 2874 2882 2890 2897 2905 2910 2917 2922 2926 2928 2928 2930 2933 2936 2936 2937 2938 2940 2942 2943 2944 2941 2940 2940 2939 2936 2935 2932 2933 2931 2927 2926 2928 2928 2928 2928 2927 2925 2924 2924 2924
2778 2776 2779 2787 2796 2803 2811 2818 2827 2835 2845 2854 2863 2872 2880 2887 2895 2902 2909 2913 2918 2924 2925 2925 2926 2928 2930 2931 2932 2933 2933 2934 2935 2936 2933 2933 2935 2935 2930 2929 2919 2927 2924 2921 2921 2923 2924 2925 2921 2920 2920 2918 2916 2917
2792 2791 2793 2797 2802 2808 2815 2821 2829 2836 2844 2853 2862 2870 2877 2885 2893 2900 2905 2908 2913 2920 2922 2922 2922 2922 2923 2925 2926 2925 2924 2926 2927 2927 2926 2927 2930 2929 2922 2916 2915 2921 2917 2917 2919 2921 2919 2918 2918 2918 2916 2913 2911 2909
2803 2802 2802 2805 2809 2814 2819 2825 2831 2838 2845 2853 2862 2869 2877 2884 2888 2894 2898 2902 2911 2917 2919 2919 2917 2915 2917 2917 2918 2917 2917 2917 2918 2919 2918 2921 2923 2922 2915 2905 2914 2914 2911 2911 2912 2915 2914 2914 2915 2915 2914 2913 2909 2904
2813 2811 2811 2813 2816 2820 2824 2829 2835 2841 2848 2856 2863 2870 2878 2883 2886 2892 2897 2901 2906 2910 2913 2913 2913 2913 2912 2914 2914 2913 2910 2910 2910 2911 2912 2913 2915 2914 2904 2902 2906 2909 2909 2911 2911 2911 2911 2912 2911 2911 2911 2912 2910 2908
2823 2821 2820 2821 2823 2826 2830 2834 2839 2845 2851 2858 2863 2870 2876 2880 2882 2888 2895 2900 2903 2909 2907 2907 2908 2909 2907 2908 2909 2907 2905 2902 2904 2903 2904 2908 2904 2900 2898 2901 2902 2902 2904 2908 2908 2908 2908 2908 2908 2908 2909 2910 2910 2910
2835 2832 2830 2829 2830 2831 2833 2836 2843 2849 2855 2860 2865 2870 2873 2875 2881 2889 2892 2895 2897 2899 2901 2901 2904 2906 2905 2905 2903 2902 2898 2899 2899 2896 2900 2896 2892 2895 2897 2896 2897 2898 2901 2903 2904 2905 2906 2905 2905 2905 2905 2905 2906 2907
2844 2842 2840 2840 2839 2839 2842 2845 2849 2854 2857 2861 2863 2868 2872 2875 2881 2884 2888 2892 2894 2895 2895 2895 2899 2900 2900 2900 2900 2898 2893 2894 2892 2891 2893 2890 2886 2887 2891 2891 2895 2896 2899 2900 2901 2902 2902 2901 2900 2900 2899 2899 2900 2900
2853 2851 2849 2848 2848 2849 2851 2853 2855 2858 2860 2864 2866 2869 2874 2879 2881 2883 2886 2891 2890 2893 2893 2892 2894 2895 2896 2895 2894 2893 2891 2890 2888 2888 2890 2886 2883 2882 2886 2890 2893 2895 2896 2898 2898 2898 2897 2896 2895 2894 2894 2894 2895 2895
2860 2858 2857 2857 2856 2857 2858 2861 2863 2865 2867 2869 2872 2874 2877 2879 2880 2881 2883 2885 2886 2887 2888 2889 2891 2891 2891 2891 2890 2889 2888 2888 2887 2888 2887 2885 2884 2885 2887 2890 2892 2893 2895 2894 2894 2894 2893 2893 2892 2892 2891 2891 2892 2893
2864 2864 2863 2863 2864 2864 2865 2865 2866 2868 2870 2871 2873 2874 2875 2874 2874 2875 2877 2880 2883 2884 2885 2886 2886 2886 2887 2888 2888 2888 2888 2887 2888 2887 2886 2886 2886 2887 2888 2889 2890 2891 2891 2892 2892 2893 2892 2891 2891 2891 2890 2889 2890 2890
2867 2867 2867 2867 2868 2868 2868 2868 2869 2870 2870 2871 2872 2870 2869 2869 2869 2871 2874 2876 2878 2881 2882 2884 2884 2885 2886 2887 2887 2887 2887 2886 2886 2886 2885 2886 2887 2888 2889 2890 2891 2891 2892 2892 2892 2891 2891 2890 2889 2889 2888 2887 2887 2886
2868 2868 2868 2868 2868 2868 2868 2868 2868 2868 2869 2869 2868 2867 2864 2864 2866 2868 2870 2873 2875 2878 2879 2879 2881 2882 2884 2886 2886 2885 2886 2885 2885 2885 2886 2887 2888 2889 2889 2890 2890 2890 2890 2889 2889 2889 2889 2888 2886 2885 2884 2883 2882 2882
2867 2868 2868 2867 2868 2868 2867 2866 2866 2867 2867 2867 2866 2866 2865 2865 2866 2867 2869 2871 2873 2875 2877 2879 2881 2883 2883 2885 2884 2883 2884 2883 2884 2885 2886 2886 2887 2887 2886 2886 2887 2887 2886 2886 2886 2886 2885 2884 2883 2881 2880 2880 2880 2880
2864 2865 2866 2867 2867 2867 2867 2866 2866 2866 2865 2865 2864 2864 2864 2865 2867 2868 2870 2871 2873 2875 2877 2879 2880 2881 2882 2883 2883 2883 2882 2883 2883 2884 2884 2885 2884 2884 2883 2883 2882 2882 2882 2882 2882 2882 2882 2881 2880 2878 2877 2877 2877 2877
2860 2861 2863 2864 2865 2867 2867 2867 2866 2865 2865 2865 2865 2865 2866 2866 2867 2868 2869 2871 2872 2874 2875 2877 2878 2879 2881 2881 2880 2881 2881 2881 2882 2883 2882 2882 2882 2881 2880 2879 2879 2878 2878 2878 2878 2878 2878 2877 2877 2875 2875 2875 2875 2875
2854 2856 2858 2860 2862 2864 2865 2865 2865 2864 2864 2865 2865 2866 2866 2867 2868 2869 2869 2869 2870 2871 2873 2874 2876 2877 2877 2877 2877 2878 2878 2879 2879 2879 2879 2878 2877 2876 2875 2875 2875 2875 2874 2874 2873 2874 2874 2874 2873 2872 2872 2872 2873 2873
2849 2850 2852 2854 2856 2859 2860 2860 2861 2861 2861 2862 2862 2863 2864 2865 2866 2866 2867 2867 2868 2868 2870 2871 2871 2872 2872 2873 2874 2874 2875 2875 2875 2875 2874 2873 2872 2870 2871 2872 2872 2872 2871 2871 2871 2870 2869 2869 2869 2869 2869 2870 2871 2871
2844 2845 2847 2848 2850 2852 2854 2855 2857 2858 2859 2859 2860 2860 2860 2861 2862 2862 2863 2864 2865 2865 2866 2866 2867 2867 2867 2867 2866 2867 2868 2868 2868 2869 2870 2869 2868 2868 2868 2868 2868 2868 2868 2867 2866 2865 2866 2865 2865 2866 2867 2868 2869 2870
2840 2842 2843 2844 2847 2848 2850 2851 2852 2854 2856 2857 2857 2858 2858 2859 2860 2861 2861 2861 2861 2862 2863 2864 2864 2863 2863 2863 2863 2862 2862 2862 2862 2863 2865 2865 2865 2865 2866 2866 2866 2865 2864 2863 2862 2862 2862 2863 2863 2864 2865 2867 2868 2869
2838 2840 2841 2842 2844 2845 2846 2847 2849 2851 2852 2854 2855 2855 2855 2857 2859 2859 2859 2858 2859 2860 2861 2861 2861 2860 2860 2860 2859 2858 2858 2857 2857 2859 2861 2861 2862 2862 2863 2863 2863 2862 2861 2861 2860 2860 2860 2861 2862 2863 2864 2865 2866 2868
2840 2841 2842 2842 2842 2844 2844 2845 2846 2848 2849 2850 2852 2853 2853 2855 2857 2857 2857 2858 2858 2858 2858 2858 2858 2857 2856 2856 2856 2855 2855 2855 2855 2855 2857 2858 2858 2859 2859 2859 2859 2859 2858 2858 2858 2859 2859 2860 2860 2861 2862 2864 2865 2866
2838 2839 2841 2840 2841 2842 2842 2844 2845 2845 2847 2849 2850 2851 2853 2854 2855 2856 2856 2856 2856 2856 2856 2856 2856 2855 2855 2854 2853 2853 2853 2852 2852 2852 2852 2853 2853 2854 2854 2854 2854 2854 2854 2855 2855 2856 2857 2857 2858 2859 2860 2862 2863 2864
2840 2840 2839 2840 2840 2841 2842 2843 2844 2846 2847 2848 2849 2850 2851 2853 2854 2854 2853 2853 2853 2853 2853 2852 2852 2851 2851 2851 2850 2850 2849 2849 2849 2849 2849 2848 2848 2848 2849 2849 2849 2850 2850 2851 2852 2853 2853 2854 2855 2857 2858 2859 2861 2862
2843 2842 2840 2841 2841 2842 2843 2843 2844 2845 2845 2846 2848 2848 2849 2850 2850 2849 2849 2850 2850 2849 2849 2848 2847 2846 2846 2845 2846 2846 2847 2847 2846 2846 2845 2845 2844 2845 2845 2845 2846 2846 2847 2848 2848 2849 2850 2851 2852 2854 2855 2857 2858 2860
2845 2843 2843 2841 2841 2842 2843 2843 2844 2844 2844 2845 2846 2847 2847 2846 2846 2847 2847 2846 2845 2845 2844 2843 2842 2842 2842 2841 2841 2841 2842 2843 2844 2844 2844 2843 2843 2843 2843 2843 2843 2843 2844 2844 2845 2846 2847 2848 2850 2851 2853 2854 2855 2856
2846 2845 2844 2843 2843 2843 2842 2842 2843 2842 2842 2843 2844 2844 2844 2844 2845 2845 2844 2843 2842 2841 2840 2839 2838 2838 2838 2838 2838 2838 2839 2840 2842 2843 2843 2843 2842 2842 2841 2841 2841 2841 2842 2842 2843 2843 2845 2846 2847 2849 2850 2851 2853 2854
2848 2846 2845 2844 2842 2841 2840 2840 2840 2840 2840 2841 2842 2843 2842 2842 2842 2842 2842 2841 2840 2839 2837 2836 2836 2835 2835 2835 2835 2835 2837 2838 2839 2840 2841 2841 2841 2841 2841 2840 2840 2840 2840 2840 2841 2842 2843 2844 2845 2847 2848 2849 2850 2851
2849 2847 2844 2842 2841 2839 2837 2836 2837 2839 2840 2841 2841 2840 2840 2840 2840 2841 2840 2840 2839 2838 2836 2835 2834 2834 2834 2834 2834 2835 2835 2835 2836 2837 2838 2838 2839 2839 2839 2838 2838 2838 2838 2838 2839 2840 2841 2842 2843 2845 2846 2847 2848 2848
2847 2845 2844 2842 2839 2837 2836 2834 2834 2836 2838 2836 2835 2836 2835 2837 2837 2838 2838 2838 2838 2837 2836 2835 2834 2834 2833 2833 2833 2833 2833 2833 2834 2834 2834 2834 2835 2835 2835 2835 2835 2835 2835 2836 2837 2838 2839 2840 2842 2843 2844 2845 2845 2846